[[{"header":{"parameterUnit":"m.s-1","parameterCategory":1,"la1":30.2991,"la2":30.254,"lo1":-89.0895,"lo2":-89.0444,"dy":0.0017,"dx":0.0017,"nx":28,"ny":28,"refTime":"2024-05-03T21:00:00:Z","depth":0,"parameterNumber":2,"parameterNumberName":"U-component_of_WINDS"},"data":[0,0,0,0,0,0,0,0,0,0,0,0,0,0,0,0,0,0,0,0,0,0,0,0,0,0,0,0,0,0,0,0,0,0,0,0,0,0,0,0,0,0,0,0,0,0,0,0,0,0,0,0,0,0,0,0,0,0,-1.0868,-1.0868,0,-1.0851,-1.0851,-1.085,-1.0856,-1.0856,-1.0857,-1.0857,-1.0837,-1.0836,-1.0835,0,0,0,0,0,0,0,0,0,0,0,0,0,-1.0903,-1.0902,-1.0868,-1.0868,-1.0867,-1.0851,-1.0851,-1.085,-1.0856,-1.0856,-1.0857,-1.0857,-1.0837,-1.0836,-1.0835,0,0,0,0,0,0,0,0,0,0,0,0,0,-1.0887,-1.0902,-1.0868,-1.0868,-1.0868,-1.0851,-1.0851,-1.085,-1.0856,-1.0856,-1.0857,-1.0858,-1.0838,-1.0836,-1.0835,-1.0816,0,0,-1.0831,-1.0831,0,0,0,0,0,0,0,0,-1.0888,-1.0885,-1.0868,-1.0868,-1.0868,-1.0856,-1.0856,-1.0839,-1.0856,-1.086,-1.0857,-1.0858,-1.0843,-1.0841,-1.0837,-1.0815,-1.0814,-1.0831,-1.083,-1.083,-1.0829,0,0,0,0,0,0,0,-1.0889,-1.0886,-1.0861,-1.0868,-1.0868,-1.0868,-1.0867,-1.0852,-1.0849,-1.086,-1.086,-1.0859,-1.0843,-1.0838,-1.0836,-1.0814,-1.0831,-1.083,-1.0829,-1.0828,-1.0774,-1.0774,0,0,0,0,0,0,-1.089,-1.0887,-1.0862,-1.086,-1.0879,-1.0867,-1.0866,-1.0859,-1.0849,-1.0848,-1.0858,-1.0859,-1.084,-1.0838,-1.0835,-1.0812,-1.083,-1.0828,-1.0828,-1.0775,-1.0774,-1.0774,0,0,0,0,0,0,-1.0891,-1.0888,-1.0862,-1.0874,-1.0871,-1.0866,-1.0859,-1.0859,-1.0854,-1.0847,-1.0846,-1.0854,-1.084,-1.0837,-1.0821,-1.0811,-1.0828,-1.0827,-1.0776,-1.0775,-1.0774,-1.0764,0,0,0,0,0,0,-1.0892,-1.0888,-1.0881,-1.0874,-1.087,-1.0848,-1.0859,-1.0858,-1.0852,-1.0853,-1.0843,-1.0842,-1.084,-1.0823,-1.0819,-1.0809,-1.0826,-1.0777,-1.0775,-1.0774,-1.0765,-1.0763,-1.0761,0,0,0,0,0,-1.0893,-1.0879,-1.0881,-1.0878,-1.0861,-1.0848,-1.0846,-1.0845,-1.0851,-1.0844,-1.0839,-1.0842,-1.0813,-1.0821,-1.0817,-1.0807,-1.0777,-1.0776,-1.0774,-1.0766,-1.0763,-1.0761,0,0,0,0,0,0,-1.0884,-1.0878,-1.088,-1.0863,-1.0856,-1.0849,-1.0839,-1.0842,-1.0832,-1.0833,-1.0832,-1.083,-1.0813,-1.0808,-1.0817,-1.0787,-1.0796,-1.0794,-1.0791,-1.0788,-1.0786,-1.0787,-1.0824,0,0,0,0,0,-1.088,-1.087,-1.0865,-1.085,-1.0847,-1.0844,-1.0838,-1.0838,-1.083,-1.0827,-1.0822,-1.0814,-1.0803,-1.0795,-1.0785,-1.0765,-1.0762,-1.0756,-1.0754,-1.0752,-1.0749,-1.0738,-1.0735,-1.0769,-1.0769,-1.0769,0,0,-1.0872,-1.0867,-1.0861,-1.0848,-1.0843,-1.0832,-1.0841,-1.0829,-1.0821,-1.0825,-1.0809,-1.0805,-1.0796,-1.0777,-1.0769,-1.0773,-1.074,-1.075,-1.0749,-1.0747,-1.0736,-1.0733,-1.073,-1.0768,-1.0768,-1.0768,0,0,-1.085,-1.0846,-1.0833,-1.0828,-1.082,-1.0819,-1.0816,-1.0808,-1.0806,-1.079,-1.0793,-1.0783,-1.0764,-1.0757,-1.0751,-1.0728,-1.073,-1.0724,-1.0713,-1.0702,-1.0699,-1.0696,-1.0687,-1.0684,-1.0722,-1.0722,-1.0722,0,-1.084,-1.0825,-1.0826,-1.0814,-1.0808,-1.0813,-1.0799,-1.0794,-1.0782,-1.0778,-1.0783,-1.0759,-1.0754,-1.0733,-1.0728,-1.0723,-1.0719,-1.0725,-1.0699,-1.0697,-1.0695,-1.0686,-1.0683,-1.0722,-1.0722,-1.0722,-1.0722,0,-1.0813,-1.0802,-1.0793,-1.0783,-1.0776,-1.0763,-1.0761,-1.0754,-1.0755,-1.0752,-1.0736,-1.0729,-1.0717,-1.0713,-1.0713,-1.0693,-1.0695,-1.07,-1.0708,-1.0691,-1.0683,-1.0679,-1.0721,-1.0721,-1.0721,-1.0721,0,0,-1.0785,-1.0776,-1.0772,-1.0768,-1.076,-1.0751,-1.0738,-1.0728,-1.0721,-1.0714,-1.0702,-1.0686,-1.0691,-1.0684,-1.0684,-1.0674,-1.0655,-1.068,-1.068,-1.0675,-1.0631,-1.0627,-1.0624,-1.0657,-1.0657,-1.0656,-1.0632,0,-1.0762,-1.0741,-1.0741,-1.0721,-1.0711,-1.0715,-1.0704,-1.0697,-1.0695,-1.0685,-1.0682,-1.067,-1.0677,-1.0673,-1.0664,-1.066,-1.0647,-1.0662,-1.0646,-1.0645,-1.0647,-1.0619,-1.0615,-1.0593,-1.0629,-1.0628,-1.0628,0,-1.0733,-1.0725,-1.0704,-1.0698,-1.0693,-1.0683,-1.0673,-1.0665,-1.0657,-1.0656,-1.0649,-1.065,-1.0636,-1.0646,-1.0626,-1.0637,-1.063,-1.0627,-1.0626,-1.0624,-1.0635,-1.0615,-1.0585,-1.0582,-1.0623,-1.0623,-1.0624,0,-1.0714,-1.0698,-1.0683,-1.0679,-1.0671,-1.0664,-1.0661,-1.0654,-1.0647,-1.0638,-1.0634,-1.0624,-1.0617,-1.0609,-1.0607,-1.0614,-1.0587,-1.0597,-1.0585,-1.0585,-1.0578,-1.0578,-1.0546,-1.0576,-1.0576,-1.0576,-1.0576,0,-1.0688,-1.0675,-1.0674,-1.0665,-1.065,-1.0651,-1.0636,-1.0632,-1.0626,-1.0616,-1.0619,-1.0609,-1.0608,-1.0597,-1.0596,-1.0579,-1.0577,-1.0575,-1.0574,-1.0574,-1.0574,-1.0569,-1.057,-1.0575,-1.0575,-1.0575,-1.0575,0,-1.0663,-1.0663,-1.0647,-1.0641,-1.0639,-1.0628,-1.0623,-1.0614,-1.0612,-1.0599,-1.0596,-1.0592,-1.058,-1.0578,-1.0563,-1.0562,-1.0542,-1.0544,-1.0545,-1.0545,-1.0533,-1.0533,-1.0495,-1.0489,-1.0524,-1.0523,-1.0523,0,-1.0647,-1.0637,-1.063,-1.0624,-1.062,-1.061,-1.0603,-1.0604,-1.0597,-1.0588,-1.0579,-1.0568,-1.0558,-1.0538,-1.0534,-1.0523,-1.0523,-1.0511,-1.0522,-1.0522,-1.0522,-1.0522,-1.0521,-1.0508,-1.0508,-1.0508,-1.0507,0,-1.0617,-1.0617,-1.0608,-1.0599,-1.0592,-1.0584,-1.0577,-1.0572,-1.0571,-1.0563,-1.0551,-1.0544,-1.0529,-1.0517,-1.0506,-1.0501,-1.0504,-1.0504,-1.0501,-1.0499,-1.05,-1.0499,-1.0538,-1.0505,-1.0505,-1.0505,-1.0505,-1.0505,-1.0595,-1.0586,-1.058,-1.057,-1.0565,-1.0559,-1.055,-1.0547,-1.0537,-1.0526,-1.0527,-1.0513,-1.0506,-1.0491,-1.0486,-1.0475,-1.0479,-1.0474,-1.0472,-1.0471,-1.0469,-1.0503,-1.0473,-1.0473,-1.0473,-1.0473,-1.0473,0,-1.0564,-1.0561,-1.0552,-1.0542,-1.0534,-1.0539,-1.0531,-1.0524,-1.0512,-1.0506,-1.0497,-1.0483,-1.0471,-1.0466,-1.0455,-1.0447,-1.0447,-1.0444,-1.0444,-1.0442,-1.0467,-1.0471,-1.0443,-1.0443,-1.0443,-1.0443,-1.0443,-1.0443,-1.0548,-1.0533,-1.0532,-1.0515,-1.0511,-1.0499,-1.0494,-1.0488,-1.0482,-1.0467,-1.0458,-1.0455,-1.0449,-1.0437,-1.0426,-1.0425,-1.042,-1.0416,-1.0415,-1.0438,-1.0441,-1.0443,-1.0447,-1.0415,-1.0415,-1.0391,-1.0391,-1.039]},{"header":{"parameterUnit":"m.s-1","parameterCategory":1,"la1":30.2991,"la2":30.254,"lo1":-89.0895,"lo2":-89.0444,"dy":0.0017,"dx":0.0017,"nx":28,"ny":28,"refTime":"2024-05-03T21:00:00:Z","depth":0,"parameterNumber":3,"parameterNumberName":"V-component_of_WINDS"},"data":[0,0,0,0,0,0,0,0,0,0,0,0,0,0,0,0,0,0,0,0,0,0,0,0,0,0,0,0,0,0,0,0,0,0,0,0,0,0,0,0,0,0,0,0,0,0,0,0,0,0,0,0,0,0,0,0,0,0,1.1779,1.1778,0,1.1759,1.1759,1.1758,1.1706,1.1705,1.1704,1.1702,1.1684,1.1684,1.1685,0,0,0,0,0,0,0,0,0,0,0,0,0,1.1773,1.1773,1.1779,1.1778,1.1778,1.1759,1.1759,1.1758,1.1706,1.1705,1.1703,1.1702,1.1683,1.1684,1.1685,0,0,0,0,0,0,0,0,0,0,0,0,0,1.1766,1.1773,1.1779,1.175,1.1747,1.1759,1.1759,1.1758,1.1706,1.1705,1.1703,1.1701,1.1683,1.1684,1.1685,1.1724,0,0,1.1687,1.1688,0,0,0,0,0,0,0,0,1.1767,1.1767,1.1754,1.1752,1.1749,1.1733,1.175,1.1747,1.1707,1.1722,1.1702,1.17,1.1702,1.1701,1.1701,1.1723,1.1722,1.1688,1.1688,1.1688,1.1689,0,0,0,0,0,0,0,1.1767,1.1767,1.1771,1.1754,1.1751,1.1738,1.1735,1.1749,1.1721,1.172,1.1716,1.1715,1.17,1.17,1.17,1.1722,1.1687,1.1688,1.1689,1.1689,1.1776,1.1778,0,0,0,0,0,0,1.1772,1.1768,1.1771,1.177,1.1754,1.174,1.1737,1.174,1.1721,1.1717,1.1716,1.1712,1.17,1.1699,1.1699,1.1744,1.1688,1.1689,1.169,1.1774,1.1776,1.1778,0,0,0,0,0,0,1.1772,1.1772,1.1772,1.1768,1.1767,1.1742,1.1746,1.174,1.1741,1.1718,1.1713,1.1722,1.1698,1.1698,1.1718,1.1742,1.169,1.169,1.1772,1.1775,1.1777,1.1833,0,0,0,0,0,0,1.1772,1.1773,1.1787,1.1769,1.1767,1.1791,1.1747,1.1741,1.1742,1.1737,1.1722,1.1718,1.1697,1.1717,1.1719,1.1742,1.1691,1.177,1.1773,1.1776,1.1829,1.1837,1.1845,0,0,0,0,0,1.1772,1.1804,1.1788,1.1789,1.1784,1.1793,1.1792,1.1767,1.1744,1.1758,1.1744,1.1718,1.174,1.172,1.1721,1.1745,1.1768,1.1772,1.1776,1.1825,1.1836,1.1844,0,0,0,0,0,0,1.1826,1.1801,1.1783,1.181,1.1804,1.1784,1.1801,1.1779,1.1779,1.1774,1.1744,1.1741,1.1766,1.1757,1.1736,1.1782,1.175,1.1754,1.1787,1.1796,1.1804,1.1805,1.1692,0,0,0,0,0,1.1841,1.1849,1.1827,1.1853,1.1851,1.1827,1.1829,1.1811,1.1803,1.18,1.1787,1.1782,1.1787,1.1791,1.1795,1.1828,1.1824,1.1845,1.1853,1.186,1.1864,1.1881,1.189,1.1792,1.1791,1.1791,0,0,1.1872,1.1859,1.1866,1.1863,1.1856,1.1866,1.1825,1.1837,1.1844,1.1802,1.182,1.1811,1.1803,1.1829,1.1841,1.1823,1.189,1.1865,1.187,1.1871,1.1886,1.1895,1.1904,1.1794,1.1794,1.1793,0,0,1.1933,1.1924,1.1945,1.1939,1.1929,1.1913,1.1918,1.1902,1.1894,1.1911,1.1881,1.1889,1.1899,1.1894,1.1893,1.1954,1.193,1.1956,1.1997,1.2014,1.2021,1.2028,1.205,1.2058,1.196,1.1961,1.1961,0,1.1973,1.1986,1.1958,1.1972,1.1972,1.1935,1.1956,1.1952,1.1944,1.1945,1.1926,1.1938,1.193,1.1955,1.197,1.197,1.1976,1.1957,1.2022,1.2029,1.2035,1.2055,1.2063,1.1964,1.1963,1.1963,1.1963,0,1.2035,1.2045,1.2063,1.2056,1.2058,1.2075,1.2051,1.2057,1.2038,1.2024,1.2043,1.2032,1.2033,1.2038,1.202,1.2061,1.2051,1.2028,1.1994,1.2048,1.2066,1.2074,1.1968,1.1967,1.1966,1.1965,0,0,1.2129,1.2107,1.2114,1.2111,1.2097,1.2104,1.2121,1.2121,1.2127,1.2123,1.2136,1.2146,1.2124,1.2123,1.2105,1.212,1.2169,1.2095,1.2094,1.2109,1.2213,1.223,1.224,1.2153,1.2155,1.2156,1.2214,0,1.2186,1.2212,1.2189,1.2219,1.2228,1.2193,1.2208,1.2202,1.2189,1.2196,1.2182,1.2189,1.2161,1.216,1.2173,1.216,1.2189,1.2155,1.2165,1.2166,1.2168,1.2249,1.2267,1.2322,1.2221,1.2222,1.2223,0,1.2257,1.2256,1.2287,1.2272,1.2275,1.2288,1.2287,1.2293,1.2286,1.2276,1.2276,1.2253,1.2269,1.2236,1.2257,1.2235,1.2238,1.2232,1.2234,1.2233,1.2197,1.2251,1.2339,1.2348,1.2234,1.2233,1.2232,0,1.2322,1.2329,1.2348,1.2346,1.233,1.234,1.2333,1.2324,1.2326,1.2326,1.2327,1.2328,1.2329,1.2331,1.231,1.2289,1.2334,1.23,1.2327,1.2327,1.2337,1.2337,1.2427,1.234,1.234,1.234,1.234,0,1.2388,1.2409,1.2377,1.2389,1.2411,1.2385,1.2408,1.2398,1.239,1.24,1.2371,1.2381,1.2353,1.236,1.2344,1.2364,1.2365,1.2358,1.2353,1.236,1.2361,1.2361,1.2356,1.2342,1.2341,1.2341,1.2341,0,1.2464,1.2444,1.2463,1.2446,1.2442,1.2459,1.2444,1.2455,1.2441,1.2455,1.2456,1.2435,1.2442,1.2421,1.2425,1.2415,1.2444,1.2433,1.2446,1.2443,1.247,1.2468,1.2564,1.2575,1.2481,1.2482,1.2483,0,1.2507,1.2522,1.2507,1.2511,1.2506,1.2514,1.2516,1.2491,1.2494,1.2487,1.2499,1.2504,1.2506,1.252,1.2505,1.2508,1.2497,1.253,1.2497,1.2504,1.2497,1.2496,1.2498,1.2537,1.2538,1.2539,1.254,0,1.2586,1.2576,1.2579,1.258,1.2583,1.2583,1.258,1.2586,1.2559,1.2564,1.2571,1.2573,1.2577,1.2582,1.2583,1.2576,1.2554,1.2551,1.2557,1.2564,1.2571,1.2567,1.2464,1.2548,1.2547,1.2547,1.2546,1.2546,1.2647,1.2659,1.265,1.2655,1.2651,1.2649,1.2658,1.2646,1.2651,1.2652,1.2637,1.2648,1.2641,1.2638,1.2635,1.2643,1.2627,1.2637,1.2639,1.2641,1.2646,1.257,1.2643,1.2642,1.2642,1.2642,1.2642,0,1.2724,1.2717,1.2722,1.2719,1.2724,1.2702,1.2699,1.2704,1.2713,1.2708,1.2711,1.272,1.2725,1.2711,1.2714,1.2723,1.2713,1.2725,1.2724,1.2723,1.2659,1.2654,1.2733,1.2733,1.2733,1.2733,1.2733,1.2733,1.2765,1.2784,1.2773,1.2789,1.2782,1.2791,1.2791,1.279,1.2786,1.2796,1.28,1.2791,1.2783,1.2785,1.2789,1.2785,1.2787,1.2803,1.2795,1.2736,1.2727,1.2719,1.2713,1.2804,1.2804,1.2858,1.2858,1.2859]}]]